M0ZPG Weather Reports


Display with metric or nautical units.
time (UTC)temp
F
wind
direction
speed
MPH
gust
MPH
rain 1hr
in
rain 24hr
in
rain mn
in
humidity
%
barometer
mb
20260831101803 67 259 1.0 4.0 0.00 0.04 0.01 74 1009.9
20260831100903 67 244 2.0 7.0 0.00 0.04 0.01 74 1009.8
20260831100215 67 245 2.0 7.0 0.00 0.04 0.01 73 1009.8
20260831095403 67 241 1.0 4.0 0.00 0.04 0.01 74 1009.8
20260831094713 67 235 1.0 9.0 0.00 0.04 0.01 74 1009.7
20260831093603 67 255 2.0 7.0 0.00 0.04 0.01 75 1009.4
20260831092703 66 268 1.0 7.0 0.00 0.04 0.01 76 1009.2
20260831092015 65 260 2.0 7.0 0.00 0.04 0.01 78 1009.2
20260831090906 65 264 1.0 8.0 0.00 0.04 0.01 77 1009.0
20260831090006 65 239 1.0 6.0 0.00 0.04 0.01 77 1008.9
20260831085405 65 251 1.0 5.0 0.00 0.04 0.01 79 1008.9
20260831084503 64 257 2.0 6.0 0.00 0.04 0.01 79 1008.7
20260831083603 64 252 2.0 8.0 0.00 0.04 0.01 79 1008.6
20260831082705 64 267 2.0 7.0 0.00 0.04 0.01 79 1008.3
20260831082016 63 262 2.0 6.0 0.00 0.04 0.01 80 1008.2
20260831080905 63 248 2.0 7.0 0.00 0.04 0.01 79 1008.1
20260831080004 63 272 2.0 7.0 0.00 0.04 0.01 80 1007.9
20260831075405 63 257 2.0 8.0 0.00 0.04 0.01 80 1007.9
20260831074504 62 254 2.0 7.0 0.00 0.04 0.01 81 1007.8
20260831073603 62 253 1.0 10.0 0.00 0.04 0.01 81 1007.5
20260831072705 62 245 1.0 4.0 0.00 0.04 0.01 82 1007.4
20260831071803 61 259 2.0 6.0 0.00 0.04 0.01 83 1007.2
20260831070905 60 235 1.0 8.0 0.00 0.04 0.01 84 1007.2
20260831070004 60 245 2.0 5.0 0.00 0.04 0.01 85 1007.1
20260831065618 60 241 1.0 5.0 0.00 0.04 0.01 85 1007.0
20260831064505 59 229 1.0 6.0 0.00 0.04 0.01 87 1006.9
20260831063605 58 226 1.0 5.0 0.00 0.04 0.01 87 1006.8
20260831062704 58 257 1.0 4.0 0.00 0.04 0.01 88 1006.8
20260831061804 58 243 1.0 4.0 0.00 0.04 0.01 88 1006.6
20260831060903 58 251 1.0 6.0 0.00 0.04 0.01 89 1006.5
20260831060003 57 232 1.0 4.0 0.00 0.04 0.01 89 1006.3
20260831055406 57 238 1.0 5.0 0.00 0.04 0.01 90 1006.2
20260831054504 57 241 1.0 4.0 0.00 0.04 0.01 89 1006.1
20260831053605 57 214 1.0 5.0 0.00 0.04 0.01 89 1006.0
20260831052705 57 256 1.0 4.0 0.00 0.04 0.01 89 1005.9
20260831051805 57 207 1.0 7.0 0.00 0.04 0.01 89 1005.9
20260831050906 57 258 1.0 6.0 0.00 0.04 0.01 89 1005.6
20260831050003 57 268 0.0 4.0 0.00 0.04 0.01 89 1005.5
20260831045403 57 266 1.0 6.0 0.00 0.04 0.01 89 1005.4
20260831044503 58 245 0.0 6.0 0.00 0.04 0.01 89 1005.3
20260831043606 58 220 1.0 4.0 0.00 0.04 0.01 89 1005.4
20260831042703 58 187 0.0 4.0 0.00 0.04 0.01 88 1005.2
20260831041807 58 202 1.0 4.0 0.00 0.04 0.01 88 1005.2
20260831040003 58 210 1.0 6.0 0.00 0.04 0.01 87 1005.1
20260831035405 59 245 1.0 7.0 0.00 0.04 0.01 87 1005.1
20260831034503 59 236 1.0 6.0 0.00 0.04 0.01 88 1005.1
20260831033603 59 239 1.0 5.0 0.00 0.04 0.01 88 1005.1
20260831032703 59 229 1.0 10.0 0.00 0.04 0.01 88 1005.1
20260831031805 59 248 1.0 7.0 0.00 0.04 0.01 88 1005.0
20260831031117 60 254 1.0 7.0 0.00 0.04 0.01 89 1004.9
20260831030003 60 239 1.0 6.0 0.00 0.04 0.01 89 1004.8
20260831025405 60 233 1.0 7.0 0.00 0.04 0.01 89 1005.0
20260831024507 60 217 2.0 7.0 0.00 0.04 0.01 89 1004.7
20260831023605 60 218 1.0 6.0 0.00 0.04 0.01 89 1004.6
20260831022703 60 215 1.0 8.0 0.00 0.04 0.01 89 1004.5
20260831022015 60 197 2.0 8.0 0.00 0.04 0.01 90 1004.4
20260831020903 60 248 1.0 4.0 0.00 0.04 0.01 90 1004.3
20260831020215 60 211 1.0 4.0 0.00 0.04 0.01 90 1004.3
20260831015616 60 233 2.0 6.0 0.00 0.04 0.01 90 1004.2
20260831014504 60 198 1.0 6.0 0.00 0.04 0.01 90 1004.3
20260831013605 60 212 2.0 6.0 0.00 0.04 0.01 90 1004.3
20260831012703 60 191 1.0 6.0 0.00 0.04 0.01 91 1004.4
20260831012016 60 166 2.0 7.0 0.00 0.04 0.01 90 1004.2
20260831010903 60 147 1.0 7.0 0.01 0.04 0.01 90 1004.5
20260831010005 60 149 1.0 7.0 0.01 0.04 0.01 90 1004.5
20260831005406 60 155 1.0 5.0 0.01 0.04 0.01 90 1004.4
20260831004506 60 145 1.0 5.0 0.01 0.04 0.01 90 1004.5
20260831003603 60 158 2.0 8.0 0.01 0.04 0.01 90 1004.6
20260831002705 61 158 1.0 10.0 0.01 0.04 0.01 89 1004.6
20260831001805 61 157 1.0 10.0 0.01 0.04 0.01 89 1004.5
20260831000904 61 151 1.0 6.0 0.00 0.03 0.00 88 1004.7
20260831000005 60 176 1.0 5.0 0.00 0.03 0.00 89 1005.0
20260830235405 60 180 0.0 4.0 0.00 0.03 0.00 89 1004.9
20260830234505 60 182 1.0 7.0 0.00 0.03 0.00 89 1005.0
20260830233605 60 167 1.0 6.0 0.00 0.03 0.00 89 1005.1
20260830232705 60 175 1.0 5.0 0.00 0.03 0.00 88 1005.2
20260830231805 60 181 0.0 2.0 0.00 0.03 0.00 87 1005.2
20260830230903 61 183 0.0 3.0 0.00 0.03 0.00 87 1005.4
20260830230017 61 173 0.0 5.0 0.00 0.03 0.00 87 1005.5
20260830225405 61 164 1.0 6.0 0.00 0.03 0.03 87 1005.5
20260830224503 61 197 1.0 7.0 0.00 0.03 0.03 87 1005.6
20260830223604 61 187 1.0 7.0 0.00 0.03 0.03 87 1005.7
20260830222705 61 165 1.0 5.0 0.00 0.03 0.03 87 1005.9
20260830221803 61 190 1.0 3.0 0.00 0.03 0.03 86 1006.0
20260830220903 61 199 1.0 3.0 0.00 0.03 0.03 86 1006.0
20260830220004 61 207 0.0 4.0 0.00 0.03 0.03 86 1006.0
20260830215405 62 198 1.0 5.0 0.00 0.03 0.03 85 1006.0
20260830214503 62 227 2.0 8.0 0.00 0.03 0.03 85 1006.2
20260830213603 62 220 2.0 8.0 0.03 0.03 0.03 85 1006.1
20260830212703 62 216 2.0 8.0 0.03 0.03 0.03 85 1005.9
20260830211803 62 184 1.0 8.0 0.03 0.03 0.03 86 1005.8
20260830210903 63 201 2.0 7.0 0.03 0.03 0.03 87 1005.7
20260830210005 63 157 2.0 7.0 0.03 0.03 0.03 87 1005.9
20260830205405 64 149 2.0 7.0 0.03 0.03 0.03 86 1006.0
20260830204508 64 164 2.0 9.0 0.03 0.03 0.03 86 1006.0
20260830203603 64 157 1.0 5.0 0.00 0.00 0.00 83 1005.9
20260830202704 64 144 0.0 2.0 0.00 0.00 0.00 82 1005.8
20260830201803 65 145 1.0 2.0 0.00 0.00 0.00 82 1006.0
20260830200905 65 133 1.0 4.0 0.00 0.00 0.00 81 1005.9
20260830200003 65 141 1.0 5.0 0.00 0.00 0.00 80 1006.0
20260830195615 65 146 1.0 5.0 0.00 0.00 0.00 79 1006.1
20260830194717 66 175 1.0 7.0 0.00 0.00 0.00 79 1006.2
20260830193605 66 161 1.0 4.0 0.00 0.00 0.00 78 1006.3
20260830192705 66 164 1.0 5.0 0.00 0.00 0.00 78 1006.4
20260830191805 66 137 1.0 6.0 0.00 0.00 0.00 77 1006.5
20260830190905 66 140 1.0 7.0 0.00 0.00 0.00 76 1006.5
20260830190003 66 209 1.0 7.0 0.00 0.00 0.00 75 1006.6
20260830185406 66 191 1.0 5.0 0.00 0.00 0.00 75 1006.7
20260830184713 67 167 1.0 6.0 0.00 0.00 0.00 74 1006.7
20260830183603 67 213 2.0 8.0 0.00 0.00 0.00 74 1006.5
20260830182703 67 145 2.0 9.0 0.00 0.00 0.00 73 1006.7
20260830181806 68 165 2.0 9.0 0.00 0.00 0.00 73 1006.8
20260830180906 68 167 2.0 6.0 0.00 0.00 0.00 72 1006.7
20260830180003 68 169 2.0 8.0 0.00 0.00 0.00 71 1006.9
20260830175405 68 178 2.0 9.0 0.00 0.00 0.00 70 1007.0
20260830174503 68 163 2.0 5.0 0.00 0.00 0.00 69 1007.0
20260830173604 68 158 3.0 11.0 0.00 0.00 0.00 69 1007.0
20260830172703 69 186 2.0 7.0 0.00 0.00 0.00 68 1006.8
20260830172015 69 158 3.0 9.0 0.00 0.00 0.00 67 1006.8
20260830170903 69 218 3.0 11.0 0.00 0.00 0.00 67 1007.0
20260830170003 70 158 3.0 7.0 0.00 0.00 0.00 69 1006.9
20260830165405 70 150 3.0 8.0 0.00 0.00 0.00 68 1007.0
20260830164504 70 181 3.0 10.0 0.00 0.00 0.00 67 1006.9
20260830163606 71 162 3.0 9.0 0.00 0.00 0.00 66 1007.0
20260830162703 72 162 3.0 9.0 0.00 0.00 0.00 64 1007.0
20260830162016 72 173 3.0 10.0 0.00 0.00 0.00 64 1007.0
20260830160905 71 213 3.0 11.0 0.00 0.00 0.00 63 1007.1
20260830160006 71 188 3.0 9.0 0.00 0.00 0.00 62 1007.1
20260830155617 72 212 3.0 9.0 0.00 0.00 0.00 63 1007.2
20260830154503 72 222 2.0 8.0 0.00 0.00 0.00 62 1007.2
20260830153605 72 179 3.0 10.0 0.00 0.00 0.00 62 1007.3
20260830152704 71 203 3.0 8.0 0.00 0.00 0.00 64 1007.3
20260830152017 71 200 3.0 14.0 0.00 0.00 0.00 63 1007.3
20260830150905 71 169 3.0 10.0 0.00 0.00 0.00 64 1007.4
20260830150006 72 173 3.0 11.0 0.00 0.00 0.00 64 1007.5
20260830145405 72 164 3.0 11.0 0.00 0.00 0.00 64 1007.4
20260830144503 72 152 4.0 11.0 0.00 0.00 0.00 64 1007.5
20260830143603 72 172 4.0 12.0 0.00 0.00 0.00 63 1007.7
20260830142705 74 191 3.0 9.0 0.00 0.00 0.00 62 1007.7
20260830141805 74 156 3.0 9.0 0.00 0.00 0.00 64 1007.7
20260830140906 74 163 3.0 11.0 0.00 0.00 0.00 63 1007.7
20260830140217 73 169 3.0 11.0 0.00 0.00 0.00 64 1007.6
20260830135405 73 182 3.0 16.0 0.00 0.00 0.00 67 1007.7
20260830134716 72 147 3.0 9.0 0.00 0.00 0.00 69 1007.9
20260830133604 72 166 3.0 11.0 0.00 0.00 0.00 70 1008.0
20260830132703 71 196 2.0 8.0 0.00 0.00 0.00 72 1008.2
20260830132018 71 173 3.0 7.0 0.00 0.01 0.00 72 1008.4
20260830131115 71 157 3.0 9.0 0.00 0.01 0.00 72 1008.5
20260830130003 70 161 3.0 9.0 0.00 0.01 0.00 72 1008.6
20260830125403 70 164 3.0 9.0 0.00 0.01 0.00 73 1008.7
20260830124505 70 169 2.0 6.0 0.00 0.01 0.00 73 1008.8
20260830123814 70 165 2.0 8.0 0.00 0.01 0.00 72 1008.7
20260830122704 71 173 2.0 8.0 0.00 0.01 0.00 69 1008.6
20260830121803 72 148 2.0 9.0 0.00 0.01 0.00 66 1008.6
20260830120903 72 155 3.0 8.0 0.00 0.01 0.00 64 1008.6
20260830120004 73 159 2.0 8.0 0.00 0.01 0.00 62 1008.6
20260830115403 73 147 2.0 7.0 0.00 0.01 0.00 63 1008.5
20260830114717 73 188 1.0 5.0 0.00 0.01 0.00 61 1008.7
20260830113603 73 188 2.0 9.0 0.00 0.01 0.00 63 1008.7
20260830112917 73 191 2.0 8.0 0.00 0.01 0.00 62 1008.7
20260830111805 72 218 2.0 6.0 0.00 0.01 0.00 65 1008.9
20260830110903 72 177 2.0 6.0 0.00 0.02 0.00 65 1009.0
20260830110004 71 261 2.0 7.0 0.00 0.02 0.00 69 1009.1
20260830105404 71 267 2.0 7.0 0.00 0.02 0.00 67 1009.2
20260830104718 71 227 2.0 9.0 0.00 0.02 0.00 66 1009.2
20260830103605 72 221 2.0 7.0 0.00 0.02 0.00 67 1009.3
20260830102912 72 217 2.0 8.0 0.00 0.04 0.00 66 1009.3